Saint Bonnet de Bellac- Haute Vienne - France
Donnes mto: mercredi, 13/06/2012
Date Horaire Temp. E. Hum. E. P.atmo. Pluie Vent Direction Direction Ensoleilleme Solaire P. de rose Temp au vent Rafales
13/06/2012 00:00 12,3 C 86 % 1014,4 hPa 0,0 mm 2,2 km/h (1 Bft) O 270 0 min 0 W/m 10,0 C 12,3 C 6,1 km/h (2 Bft)
13/06/2012 00:10 12,2 C 86 % 1014,4 hPa 0,0 mm 3,2 km/h (1 Bft) SO 225 0 min 0 W/m 9,9 C 12,2 C 8,6 km/h (2 Bft)
13/06/2012 00:20 12,1 C 87 % 1014,4 hPa 0,0 mm 2,9 km/h (1 Bft) S-SO 202 0 min 0 W/m 10,0 C 12,1 C 7,2 km/h (2 Bft)
13/06/2012 00:30 12,1 C 87 % 1014,4 hPa 0,0 mm 6,8 km/h (2 Bft) S-SO 202 0 min 0 W/m 10,0 C 12,1 C 9,0 km/h (2 Bft)
13/06/2012 00:40 11,9 C 87 % 1014,6 hPa 0,0 mm 2,5 km/h (1 Bft) S-SO 202 0 min 0 W/m 9,8 C 11,9 C 6,1 km/h (2 Bft)
13/06/2012 00:50 11,8 C 86 % 1014,7 hPa 0,0 mm 5,4 km/h (2 Bft) O-SO 247 0 min 0 W/m 9,5 C 11,8 C 7,6 km/h (2 Bft)
13/06/2012 01:00 11,8 C 87 % 1014,7 hPa 0,0 mm 1,1 km/h (1 Bft) SO 225 0 min 0 W/m 9,7 C 11,8 C 3,2 km/h (1 Bft)
13/06/2012 01:10 11,6 C 87 % 1014,7 hPa 0,0 mm 3,6 km/h (1 Bft) SO 225 0 min 0 W/m 9,5 C 11,6 C 6,8 km/h (2 Bft)
13/06/2012 01:20 11,6 C 88 % 1014,6 hPa 0,0 mm 2,2 km/h (1 Bft) O-SO 247 0 min 0 W/m 9,7 C 11,6 C 3,6 km/h (1 Bft)
13/06/2012 01:30 11,5 C 88 % 1014,7 hPa 0,0 mm 2,2 km/h (1 Bft) SO 225 0 min 0 W/m 9,6 C 11,5 C 4,0 km/h (1 Bft)
13/06/2012 01:40 11,5 C 89 % 1014,6 hPa 0,0 mm 5,0 km/h (1 Bft) SO 225 0 min 0 W/m 9,8 C 11,5 C 9,4 km/h (2 Bft)
13/06/2012 01:50 11,5 C 89 % 1014,7 hPa 0,0 mm 4,3 km/h (1 Bft) O-SO 247 0 min 0 W/m 9,8 C 11,5 C 8,3 km/h (2 Bft)
13/06/2012 02:00 11,5 C 90 % 1014,7 hPa 0,0 mm 1,4 km/h (1 Bft) O-SO 247 0 min 0 W/m 9,9 C 11,5 C 6,1 km/h (2 Bft)
13/06/2012 02:10 11,5 C 90 % 1014,7 hPa 0,0 mm 6,1 km/h (2 Bft) SO 225 0 min 0 W/m 9,9 C 11,5 C 9,0 km/h (2 Bft)
13/06/2012 02:20 11,5 C 90 % 1014,8 hPa 0,0 mm 4,0 km/h (1 Bft) S-SO 202 0 min 0 W/m 9,9 C 11,5 C 9,7 km/h (2 Bft)
13/06/2012 02:30 11,4 C 90 % 1014,8 hPa 0,0 mm 2,5 km/h (1 Bft) SO 225 0 min 0 W/m 9,8 C 11,4 C 4,3 km/h (1 Bft)
13/06/2012 02:40 11,4 C 90 % 1014,8 hPa 0,0 mm 4,0 km/h (1 Bft) S 180 0 min 0 W/m 9,8 C 11,4 C 4,0 km/h (1 Bft)
13/06/2012 02:50 11,4 C 91 % 1014,8 hPa 0,0 mm 3,6 km/h (1 Bft) O 270 0 min 0 W/m 10,0 C 11,4 C 9,0 km/h (2 Bft)
13/06/2012 03:02 11,5 C 91 % 1014,9 hPa 0,0 mm 2,9 km/h (1 Bft) O-SO 247 0 min 0 W/m 10,1 C 11,5 C 6,1 km/h (2 Bft)
13/06/2012 03:10 11,5 C 91 % 1014,9 hPa 0,0 mm 4,3 km/h (1 Bft) S-SO 202 0 min 0 W/m 10,1 C 11,5 C 8,3 km/h (2 Bft)
13/06/2012 03:20 11,6 C 91 % 1015,0 hPa 0,0 mm 3,2 km/h (1 Bft) O-SO 247 0 min 0 W/m 10,2 C 11,6 C 3,2 km/h (1 Bft)
13/06/2012 03:30 11,5 C 91 % 1014,9 hPa 0,0 mm 1,1 km/h (1 Bft) O 270 0 min 0 W/m 10,1 C 11,5 C 3,2 km/h (1 Bft)
13/06/2012 03:40 11,5 C 91 % 1014,9 hPa 0,0 mm 1,1 km/h (1 Bft) SO 225 0 min 0 W/m 10,1 C 11,5 C 4,3 km/h (1 Bft)
13/06/2012 03:50 11,5 C 91 % 1014,9 hPa 0,0 mm 2,2 km/h (1 Bft) O-SO 247 0 min 0 W/m 10,1 C 11,5 C 6,5 km/h (2 Bft)
13/06/2012 04:00 11,5 C 91 % 1014,9 hPa 0,0 mm 3,2 km/h (1 Bft) O-SO 247 0 min 0 W/m 10,1 C 11,5 C 3,6 km/h (1 Bft)
13/06/2012 04:10 11,4 C 91 % 1014,9 hPa 0,0 mm 3,6 km/h (1 Bft) SO 225 0 min 0 W/m 10,0 C 11,4 C 5,8 km/h (2 Bft)
13/06/2012 04:20 11,4 C 91 % 1014,9 hPa 0,0 mm 5,4 km/h (2 Bft) SO 225 0 min 0 W/m 10,0 C 11,4 C 5,4 km/h (2 Bft)
13/06/2012 04:30 11,4 C 90 % 1014,9 hPa 0,0 mm 2,2 km/h (1 Bft) SO 225 0 min 0 W/m 9,8 C 11,4 C 4,0 km/h (1 Bft)
13/06/2012 04:40 11,4 C 90 % 1014,8 hPa 0,0 mm 4,3 km/h (1 Bft) S-SO 202 0 min 0 W/m 9,8 C 11,4 C 4,3 km/h (1 Bft)
13/06/2012 04:50 11,3 C 91 % 1014,7 hPa 0,0 mm 1,1 km/h (1 Bft) S-SO 202 0 min 0 W/m 9,9 C 11,3 C 2,9 km/h (1 Bft)
13/06/2012 05:00 11,3 C 91 % 1014,8 hPa 0,0 mm 2,9 km/h (1 Bft) S-SO 202 0 min 0 W/m 9,9 C 11,3 C 4,3 km/h (1 Bft)
13/06/2012 05:10 11,3 C 91 % 1014,7 hPa 0,0 mm 1,8 km/h (1 Bft) SO 225 0 min 0 W/m 9,9 C 11,3 C 3,6 km/h (1 Bft)
13/06/2012 05:20 11,3 C 91 % 1014,9 hPa 0,0 mm 0,7 km/h (0 Bft) O-SO 247 0 min 0 W/m 9,9 C 11,3 C 4,0 km/h (1 Bft)
13/06/2012 05:30 11,3 C 91 % 1014,9 hPa 0,0 mm 2,9 km/h (1 Bft) SO 225 0 min 0 W/m 9,9 C 11,3 C 4,3 km/h (1 Bft)
13/06/2012 05:40 11,2 C 91 % 1014,9 hPa 0,0 mm 0,4 km/h (0 Bft) O-SO 247 0 min 0 W/m 9,8 C 11,2 C 3,2 km/h (1 Bft)
13/06/2012 05:50 11,1 C 91 % 1015,0 hPa 0,0 mm 4,0 km/h (1 Bft) O-SO 247 0 min 0 W/m 9,7 C 11,1 C 4,3 km/h (1 Bft)
13/06/2012 06:00 11,1 C 91 % 1015,1 hPa 0,0 mm 1,4 km/h (1 Bft) O-SO 247 0 min 0 W/m 9,7 C 11,1 C 3,6 km/h (1 Bft)
13/06/2012 06:10 11,1 C 91 % 1015,1 hPa 0,0 mm 2,2 km/h (1 Bft) O-SO 247 0 min 0 W/m 9,7 C 11,1 C 6,5 km/h (2 Bft)
13/06/2012 06:20 11,1 C 91 % 1015,2 hPa 0,0 mm 1,1 km/h (1 Bft) S-SO 202 0 min 0 W/m 9,7 C 11,1 C 4,0 km/h (1 Bft)
13/06/2012 06:30 11,1 C 91 % 1015,3 hPa 0,0 mm 1,1 km/h (1 Bft) O 270 0 min 0 W/m 9,7 C 11,1 C 3,2 km/h (1 Bft)
13/06/2012 06:40 11,1 C 91 % 1015,4 hPa 0,0 mm 0,0 km/h (0 Bft) SO 225 0 min 0 W/m 9,7 C 11,1 C 0,0 km/h (0 Bft)
13/06/2012 06:50 11,0 C 91 % 1015,5 hPa 0,0 mm 2,5 km/h (1 Bft) SO 225 0 min 0 W/m 9,6 C 11,0 C 4,3 km/h (1 Bft)
13/06/2012 07:00 10,9 C 91 % 1015,4 hPa 0,0 mm 2,2 km/h (1 Bft) S-SO 202 0 min 0 W/m 9,5 C 10,9 C 3,2 km/h (1 Bft)
13/06/2012 07:10 10,9 C 91 % 1015,5 hPa 0,0 mm 0,7 km/h (0 Bft) O-SO 247 0 min 0 W/m 9,5 C 10,9 C 3,6 km/h (1 Bft)
13/06/2012 07:20 11,0 C 92 % 1015,5 hPa 0,0 mm 2,9 km/h (1 Bft) SO 225 0 min 0 W/m 9,8 C 11,0 C 4,0 km/h (1 Bft)
13/06/2012 07:30 11,2 C 92 % 1015,5 hPa 0,0 mm 5,4 km/h (2 Bft) S-SO 202 0 min 0 W/m 9,9 C 11,2 C 5,4 km/h (2 Bft)
13/06/2012 07:40 11,3 C 92 % 1015,6 hPa 0,0 mm 0,4 km/h (0 Bft) SO 225 0 min 0 W/m 10,0 C 11,3 C 3,2 km/h (1 Bft)
13/06/2012 07:50 11,5 C 92 % 1015,7 hPa 0,0 mm 2,9 km/h (1 Bft) SO 225 0 min 0 W/m 10,2 C 11,5 C 6,8 km/h (2 Bft)
13/06/2012 08:00 11,8 C 92 % 1015,8 hPa 0,0 mm 1,4 km/h (1 Bft) SO 225 0 min 0 W/m 10,5 C 11,8 C 1,4 km/h (1 Bft)
13/06/2012 08:10 11,9 C 91 % 1015,8 hPa 0,0 mm 4,0 km/h (1 Bft) O-SO 247 0 min 0 W/m 10,5 C 11,9 C 9,0 km/h (2 Bft)
13/06/2012 08:20 12,1 C 91 % 1016,0 hPa 0,0 mm 1,4 km/h (1 Bft) SO 225 0 min 0 W/m 10,7 C 12,1 C 3,6 km/h (1 Bft)
13/06/2012 08:30 12,2 C 91 % 1016,1 hPa 0,0 mm 0,7 km/h (0 Bft) SO 225 0 min 0 W/m 10,8 C 12,2 C 4,0 km/h (1 Bft)
13/06/2012 08:40 12,3 C 90 % 1016,2 hPa 0,0 mm 1,8 km/h (1 Bft) O-SO 247 0 min 0 W/m 10,7 C 12,3 C 3,6 km/h (1 Bft)
13/06/2012 08:50 12,4 C 90 % 1016,3 hPa 0,0 mm 5,0 km/h (1 Bft) S 180 0 min 0 W/m 10,8 C 12,4 C 8,3 km/h (2 Bft)
13/06/2012 09:00 12,5 C 89 % 1016,4 hPa 0,0 mm 4,7 km/h (1 Bft) SO 225 0 min 0 W/m 10,7 C 12,5 C 6,8 km/h (2 Bft)
13/06/2012 09:10 12,6 C 89 % 1016,4 hPa 0,0 mm 3,2 km/h (1 Bft) SO 225 0 min 0 W/m 10,8 C 12,6 C 3,2 km/h (1 Bft)
13/06/2012 09:20 12,8 C 89 % 1016,5 hPa 0,0 mm 1,1 km/h (1 Bft) O-SO 247 0 min 0 W/m 11,0 C 12,8 C 1,1 km/h (1 Bft)
13/06/2012 09:30 12,9 C 88 % 1016,5 hPa 0,0 mm 6,1 km/h (2 Bft) S-SO 202 0 min 0 W/m 11,0 C 12,9 C 6,1 km/h (2 Bft)
13/06/2012 09:40 13,0 C 87 % 1016,5 hPa 0,0 mm 1,8 km/h (1 Bft) SO 225 0 min 0 W/m 10,9 C 13,0 C 4,0 km/h (1 Bft)
13/06/2012 09:50 13,1 C 87 % 1016,6 hPa 0,0 mm 0,4 km/h (0 Bft) O-SO 247 0 min 0 W/m 11,0 C 13,1 C 3,2 km/h (1 Bft)
13/06/2012 10:00 13,4 C 86 % 1016,6 hPa 0,0 mm 1,8 km/h (1 Bft) O-NO 292 0 min 0 W/m 11,1 C 13,4 C 3,6 km/h (1 Bft)
13/06/2012 10:10 13,3 C 86 % 1016,7 hPa 0,0 mm 4,3 km/h (1 Bft) S 180 0 min 0 W/m 11,0 C 13,3 C 8,6 km/h (2 Bft)
13/06/2012 10:20 13,6 C 86 % 1016,7 hPa 0,0 mm 2,2 km/h (1 Bft) O-SO 247 0 min 0 W/m 11,3 C 13,6 C 4,3 km/h (1 Bft)
13/06/2012 10:30 13,8 C 84 % 1016,8 hPa 0,0 mm 4,7 km/h (1 Bft) S-SO 202 0 min 0 W/m 11,1 C 13,8 C 7,6 km/h (2 Bft)
13/06/2012 10:40 13,8 C 85 % 1016,9 hPa 0,0 mm 5,0 km/h (1 Bft) S-SO 202 0 min 0 W/m 11,3 C 13,8 C 9,4 km/h (2 Bft)
13/06/2012 10:50 13,9 C 84 % 1016,9 hPa 0,0 mm 2,9 km/h (1 Bft) S-SO 202 0 min 0 W/m 11,2 C 13,9 C 4,3 km/h (1 Bft)
13/06/2012 11:00 14,4 C 83 % 1017,0 hPa 0,0 mm 4,0 km/h (1 Bft) S-SO 202 0 min 0 W/m 11,5 C 14,4 C 7,2 km/h (2 Bft)
13/06/2012 11:10 14,6 C 82 % 1017,0 hPa 0,0 mm 5,8 km/h (2 Bft) SO 225 0 min 0 W/m 11,6 C 14,6 C 5,8 km/h (2 Bft)
13/06/2012 11:20 14,8 C 83 % 1017,1 hPa 0,0 mm 2,5 km/h (1 Bft) SO 225 0 min 0 W/m 11,9 C 14,8 C 5,8 km/h (2 Bft)
13/06/2012 11:30 15,4 C 81 % 1017,1 hPa 0,0 mm 3,2 km/h (1 Bft) SO 225 0 min 0 W/m 12,2 C 15,4 C 4,7 km/h (1 Bft)
13/06/2012 11:40 16,0 C 78 % 1017,1 hPa 0,0 mm 4,3 km/h (1 Bft) SO 225 0 min 0 W/m 12,2 C 16,0 C 9,7 km/h (2 Bft)
13/06/2012 11:50 16,1 C 77 % 1017,2 hPa 0,0 mm 4,0 km/h (1 Bft) O-SO 247 0 min 0 W/m 12,1 C 16,1 C 9,7 km/h (2 Bft)
13/06/2012 12:00 15,9 C 76 % 1017,2 hPa 0,0 mm 6,1 km/h (2 Bft) S-SO 202 0 min 0 W/m 11,7 C 15,9 C 7,6 km/h (2 Bft)
13/06/2012 12:10 16,1 C 77 % 1017,2 hPa 0,0 mm 4,0 km/h (1 Bft) S-SO 202 0 min 0 W/m 12,1 C 16,1 C 8,6 km/h (2 Bft)
13/06/2012 12:20 16,1 C 77 % 1017,2 hPa 0,0 mm 4,0 km/h (1 Bft) S-SO 202 0 min 0 W/m 12,1 C 16,1 C 4,0 km/h (1 Bft)
13/06/2012 12:30 15,7 C 77 % 1017,2 hPa 0,0 mm 7,2 km/h (2 Bft) SO 225 0 min 0 W/m 11,7 C 15,7 C 7,2 km/h (2 Bft)
13/06/2012 12:40 15,3 C 79 % 1017,2 hPa 0,0 mm 6,5 km/h (2 Bft) SO 225 0 min 0 W/m 11,7 C 15,3 C 11,2 km/h (2 Bft)
13/06/2012 12:50 15,1 C 79 % 1017,2 hPa 0,0 mm 7,6 km/h (2 Bft) S-SO 202 0 min 0 W/m 11,5 C 15,1 C 11,9 km/h (2 Bft)
13/06/2012 13:00 15,1 C 81 % 1017,2 hPa 0,0 mm 6,5 km/h (2 Bft) SO 225 0 min 0 W/m 11,9 C 15,1 C 9,7 km/h (2 Bft)
13/06/2012 13:10 15,3 C 81 % 1017,1 hPa 0,0 mm 4,7 km/h (1 Bft) S 180 0 min 0 W/m 12,1 C 15,3 C 8,6 km/h (2 Bft)
13/06/2012 13:20 15,6 C 79 % 1017,2 hPa 0,0 mm 7,2 km/h (2 Bft) S-SO 202 0 min 0 W/m 12,0 C 15,6 C 16,6 km/h (3 Bft)
13/06/2012 13:30 16,3 C 77 % 1017,2 hPa 0,0 mm 7,9 km/h (2 Bft) SO 225 0 min 0 W/m 12,3 C 16,3 C 16,2 km/h (3 Bft)
13/06/2012 13:40 16,6 C 73 % 1017,2 hPa 0,0 mm 2,5 km/h (1 Bft) SO 225 0 min 0 W/m 11,7 C 16,6 C 3,2 km/h (1 Bft)
13/06/2012 13:50 16,5 C 75 % 1017,1 hPa 0,0 mm 0,4 km/h (0 Bft) SO 225 0 min 0 W/m 12,1 C 16,5 C 4,3 km/h (1 Bft)
13/06/2012 14:00 16,8 C 76 % 1017,2 hPa 0,0 mm 0,4 km/h (0 Bft) O 270 0 min 0 W/m 12,5 C 16,8 C 3,6 km/h (1 Bft)
13/06/2012 14:10 16,5 C 74 % 1017,2 hPa 0,0 mm 1,1 km/h (1 Bft) S-SO 202 0 min 0 W/m 11,8 C 16,5 C 4,0 km/h (1 Bft)
13/06/2012 14:20 16,3 C 76 % 1017,2 hPa 0,0 mm 4,3 km/h (1 Bft) S-SO 202 0 min 0 W/m 12,1 C 16,3 C 7,2 km/h (2 Bft)
13/06/2012 14:30 16,1 C 76 % 1017,2 hPa 0,0 mm 1,1 km/h (1 Bft) SO 225 0 min 0 W/m 11,9 C 16,1 C 3,6 km/h (1 Bft)
13/06/2012 14:40 16,2 C 78 % 1017,3 hPa 0,0 mm 4,7 km/h (1 Bft) S-SO 202 0 min 0 W/m 12,4 C 16,2 C 7,9 km/h (2 Bft)
13/06/2012 14:50 16,5 C 74 % 1017,2 hPa 0,0 mm 3,2 km/h (1 Bft) SO 225 0 min 0 W/m 11,8 C 16,5 C 7,9 km/h (2 Bft)
13/06/2012 15:00 16,6 C 73 % 1017,2 hPa 0,0 mm 6,1 km/h (2 Bft) S-SO 202 0 min 0 W/m 11,7 C 16,6 C 9,7 km/h (2 Bft)
13/06/2012 15:10 16,5 C 73 % 1017,1 hPa 0,0 mm 5,8 km/h (2 Bft) S 180 0 min 0 W/m 11,6 C 16,5 C 7,2 km/h (2 Bft)
13/06/2012 15:20 16,6 C 74 % 1017,2 hPa 0,0 mm 4,3 km/h (1 Bft) SO 225 0 min 0 W/m 11,9 C 16,6 C 7,6 km/h (2 Bft)
13/06/2012 15:30 17,1 C 74 % 1017,0 hPa 0,0 mm 8,3 km/h (2 Bft) SO 225 0 min 0 W/m 12,4 C 17,1 C 8,3 km/h (2 Bft)
13/06/2012 15:40 17,7 C 71 % 1017,1 hPa 0,0 mm 7,9 km/h (2 Bft) S-SO 202 0 min 0 W/m 12,4 C 17,7 C 10,8 km/h (2 Bft)
13/06/2012 15:50 17,9 C 68 % 1017,1 hPa 0,0 mm 8,6 km/h (2 Bft) S-SO 202 0 min 0 W/m 11,9 C 17,9 C 11,5 km/h (2 Bft)
13/06/2012 16:00 17,8 C 69 % 1017,1 hPa 0,0 mm 2,5 km/h (1 Bft) SO 225 0 min 0 W/m 12,0 C 17,8 C 4,0 km/h (1 Bft)
13/06/2012 16:10 18,1 C 69 % 1017,0 hPa 0,0 mm 4,3 km/h (1 Bft) O-SO 247 0 min 0 W/m 12,3 C 18,1 C 7,2 km/h (2 Bft)
13/06/2012 16:20 18,3 C 66 % 1016,9 hPa 0,0 mm 7,9 km/h (2 Bft) SO 225 0 min 0 W/m 11,8 C 18,3 C 10,4 km/h (2 Bft)
13/06/2012 16:30 18,4 C 66 % 1016,8 hPa 0,0 mm 3,2 km/h (1 Bft) S-SO 202 0 min 0 W/m 11,9 C 18,4 C 7,2 km/h (2 Bft)
13/06/2012 16:40 18,3 C 66 % 1016,9 hPa 0,0 mm 5,0 km/h (1 Bft) O 270 0 min 0 W/m 11,8 C 18,3 C 9,7 km/h (2 Bft)
13/06/2012 16:50 17,9 C 65 % 1016,9 hPa 0,0 mm 1,4 km/h (1 Bft) O 270 0 min 0 W/m 11,2 C 17,9 C 8,3 km/h (2 Bft)
13/06/2012 17:00 17,8 C 66 % 1016,9 hPa 0,0 mm 0,0 km/h (0 Bft) O 270 0 min 0 W/m 11,4 C 17,8 C 0,0 km/h (0 Bft)
13/06/2012 17:10 17,7 C 65 % 1016,8 hPa 0,0 mm 6,1 km/h (2 Bft) O-NO 292 0 min 0 W/m 11,0 C 17,7 C 8,3 km/h (2 Bft)
13/06/2012 17:20 17,6 C 65 % 1016,9 hPa 0,0 mm 2,2 km/h (1 Bft) SO 225 0 min 0 W/m 10,9 C 17,6 C 7,2 km/h (2 Bft)
13/06/2012 17:30 17,7 C 67 % 1016,9 hPa 0,0 mm 1,1 km/h (1 Bft) S-SO 202 0 min 0 W/m 11,5 C 17,7 C 3,2 km/h (1 Bft)
13/06/2012 17:40 17,9 C 65 % 1016,9 hPa 0,0 mm 0,7 km/h (0 Bft) S-SO 202 0 min 0 W/m 11,2 C 17,9 C 4,0 km/h (1 Bft)
13/06/2012 17:50 18,0 C 65 % 1016,9 hPa 0,0 mm 0,7 km/h (0 Bft) O-SO 247 0 min 0 W/m 11,3 C 18,0 C 4,3 km/h (1 Bft)
13/06/2012 18:00 18,0 C 62 % 1016,8 hPa 0,0 mm 2,2 km/h (1 Bft) O-SO 247 0 min 0 W/m 10,6 C 18,0 C 2,2 km/h (1 Bft)
13/06/2012 18:10 18,3 C 62 % 1016,8 hPa 0,0 mm 7,2 km/h (2 Bft) O 270 0 min 0 W/m 10,9 C 18,3 C 15,1 km/h (3 Bft)
13/06/2012 18:20 18,4 C 61 % 1016,8 hPa 0,0 mm 3,2 km/h (1 Bft) O-NO 292 0 min 0 W/m 10,7 C 18,4 C 8,6 km/h (2 Bft)
13/06/2012 18:30 18,3 C 61 % 1016,8 hPa 0,0 mm 3,2 km/h (1 Bft) O-SO 247 0 min 0 W/m 10,6 C 18,3 C 3,6 km/h (1 Bft)
13/06/2012 18:40 18,1 C 62 % 1016,8 hPa 0,0 mm 2,5 km/h (1 Bft) O 270 0 min 0 W/m 10,7 C 18,1 C 8,3 km/h (2 Bft)
13/06/2012 18:50 18,3 C 62 % 1016,8 hPa 0,0 mm 2,2 km/h (1 Bft) O-SO 247 0 min 0 W/m 10,9 C 18,3 C 4,7 km/h (1 Bft)
13/06/2012 19:00 18,4 C 61 % 1016,8 hPa 0,0 mm 5,8 km/h (2 Bft) S-SO 202 0 min 0 W/m 10,7 C 18,4 C 6,8 km/h (2 Bft)
13/06/2012 19:10 18,3 C 61 % 1016,8 hPa 0,0 mm 1,8 km/h (1 Bft) SO 225 0 min 0 W/m 10,6 C 18,3 C 4,3 km/h (1 Bft)
13/06/2012 19:20 17,8 C 62 % 1016,8 hPa 0,0 mm 0,0 km/h (0 Bft) O 270 0 min 0 W/m 10,4 C 17,8 C 0,0 km/h (0 Bft)
13/06/2012 19:30 17,4 C 64 % 1016,8 hPa 0,0 mm 0,0 km/h (0 Bft) O 270 0 min 0 W/m 10,5 C 17,4 C 3,2 km/h (1 Bft)
13/06/2012 19:40 16,8 C 66 % 1016,9 hPa 0,0 mm 0,0 km/h (0 Bft) SO 225 0 min 0 W/m 10,4 C 16,8 C 0,0 km/h (0 Bft)
13/06/2012 19:50 16,4 C 66 % 1016,8 hPa 0,0 mm 0,0 km/h (0 Bft) O-NO 292 0 min 0 W/m 10,0 C 16,4 C 0,0 km/h (0 Bft)
13/06/2012 20:00 16,2 C 68 % 1016,8 hPa 0,0 mm 0,0 km/h (0 Bft) O-NO 292 0 min 0 W/m 10,3 C 16,2 C 0,0 km/h (0 Bft)
13/06/2012 20:10 15,9 C 68 % 1016,8 hPa 0,0 mm 0,0 km/h (0 Bft) O-NO 292 0 min 0 W/m 10,0 C 15,9 C 0,0 km/h (0 Bft)
13/06/2012 20:20 15,6 C 69 % 1016,8 hPa 0,0 mm 0,4 km/h (0 Bft) O 270 0 min 0 W/m 9,9 C 15,6 C 3,2 km/h (1 Bft)
13/06/2012 20:30 15,3 C 70 % 1016,8 hPa 0,0 mm 0,0 km/h (0 Bft) O 270 0 min 0 W/m 9,9 C 15,3 C 0,0 km/h (0 Bft)
13/06/2012 20:40 15,2 C 72 % 1016,9 hPa 0,0 mm 0,4 km/h (0 Bft) O 270 0 min 0 W/m 10,2 C 15,2 C 0,4 km/h (0 Bft)
13/06/2012 20:50 15,0 C 73 % 1016,9 hPa 0,0 mm 0,0 km/h (0 Bft) SO 225 0 min 0 W/m 10,2 C 15,0 C 0,0 km/h (0 Bft)
13/06/2012 21:00 14,8 C 73 % 1016,9 hPa 0,0 mm 1,1 km/h (1 Bft) SO 225 0 min 0 W/m 10,0 C 14,8 C 4,3 km/h (1 Bft)
13/06/2012 21:10 14,6 C 73 % 1017,0 hPa 0,0 mm 1,4 km/h (1 Bft) SO 225 0 min 0 W/m 9,8 C 14,6 C 3,6 km/h (1 Bft)
13/06/2012 21:20 14,3 C 74 % 1017,0 hPa 0,0 mm 1,4 km/h (1 Bft) S-SO 202 0 min 0 W/m 9,7 C 14,3 C 4,0 km/h (1 Bft)
13/06/2012 21:30 14,1 C 76 % 1017,1 hPa 0,0 mm 1,1 km/h (1 Bft) SO 225 0 min 0 W/m 9,9 C 14,1 C 3,6 km/h (1 Bft)
13/06/2012 21:40 14,0 C 77 % 1017,1 hPa 0,0 mm 0,7 km/h (0 Bft) S-SO 202 0 min 0 W/m 10,0 C 14,0 C 4,3 km/h (1 Bft)
13/06/2012 21:50 13,9 C 77 % 1017,2 hPa 0,0 mm 0,0 km/h (0 Bft) S-SO 202 0 min 0 W/m 9,9 C 13,9 C 0,0 km/h (0 Bft)
13/06/2012 22:00 13,8 C 77 % 1017,1 hPa 0,0 mm 0,0 km/h (0 Bft) S-SO 202 0 min 0 W/m 9,8 C 13,8 C 0,0 km/h (0 Bft)
13/06/2012 22:10 13,8 C 77 % 1017,1 hPa 0,0 mm 0,0 km/h (0 Bft) S-SO 202 0 min 0 W/m 9,8 C 13,8 C 0,0 km/h (0 Bft)
13/06/2012 22:20 13,6 C 78 % 1017,1 hPa 0,0 mm 0,0 km/h (0 Bft) S-SO 202 0 min 0 W/m 9,8 C 13,6 C 0,0 km/h (0 Bft)
13/06/2012 22:30 13,4 C 78 % 1017,1 hPa 0,0 mm 0,0 km/h (0 Bft) S-SO 202 0 min 0 W/m 9,6 C 13,4 C 0,0 km/h (0 Bft)
13/06/2012 22:40 13,2 C 78 % 1017,2 hPa 0,0 mm 0,0 km/h (0 Bft) S-SO 202 0 min 0 W/m 9,4 C 13,2 C 0,0 km/h (0 Bft)
13/06/2012 22:50 12,8 C 78 % 1017,2 hPa 0,0 mm 0,0 km/h (0 Bft) S-SO 202 0 min 0 W/m 9,1 C 12,8 C 0,0 km/h (0 Bft)
13/06/2012 23:00 12,4 C 80 % 1017,2 hPa 0,0 mm 0,0 km/h (0 Bft) S-SO 202 0 min 0 W/m 9,0 C 12,4 C 0,0 km/h (0 Bft)
13/06/2012 23:10 12,1 C 81 % 1017,2 hPa 0,0 mm 0,0 km/h (0 Bft) S-SO 202 0 min 0 W/m 8,9 C 12,1 C 0,0 km/h (0 Bft)
13/06/2012 23:20 11,8 C 82 % 1017,1 hPa 0,0 mm 0,0 km/h (0 Bft) S-SO 202 0 min 0 W/m 8,8 C 11,8 C 0,0 km/h (0 Bft)
13/06/2012 23:30 11,8 C 83 % 1017,2 hPa 0,0 mm 0,0 km/h (0 Bft) S-SO 202 0 min 0 W/m 9,0 C 11,8 C 0,0 km/h (0 Bft)
13/06/2012 23:40 11,9 C 83 % 1017,2 hPa 0,0 mm 0,0 km/h (0 Bft) S-SO 202 0 min 0 W/m 9,1 C 11,9 C 0,0 km/h (0 Bft)
13/06/2012 23:50 11,9 C 83 % 1017,2 hPa 0,0 mm 0,0 km/h (0 Bft) S-SO 202 0 min 0 W/m 9,1 C 11,9 C 0,0 km/h (0 Bft)
_ Min-Heure 07:10 19:10 00:30 - 23:50 - - - - 23:20 07:10 23:50
Minimum _ 10,9 C 61 % 1014,4 hPa - 0,0 km/h (0 Bft) - - - - 8,8 C 10,9 C 0,0 km/h (0 Bft)
_ Max-Heure 19:00 08:00 14:40 23:50 15:50 - - 23:50 23:50 14:00 19:00 13:20
Maximum _ 18,4 C 92 % 1017,3 hPa 0,0 mm 8,6 km/h
S-SO (2 Bft)
- - 0 min 0 W/m 12,5 C 18,4 C 16,6 km/h
S-SO (3 Bft)
Moyenne _ 14,1 C 80 % 1016,3 hPa #0,0 mm 2,8 km/h (1 Bft) SO - #0 min. 0 W/m 10,6 C 14,1 C 5,1 km/h (1 Bft)
Saint Bonnet de Bellac- Haute Vienne - France